Location: Newark
(7.0858°N, 171.3717°E)
Time: 19:02:08
(UTC+00:00)

A-11 Canister half - Pass Details

Date: 06 August 2021
Orbit: 1526 x 1683 km, 47.3° (Epoch: 15 September)

Event Time Altitude Azimuth Distance (km) Brightness Sun altitude
Rises 17:50:45 0° 191° (S) 4,802 11.3 -9.8°
Reaches altitude 10° 17:54:48 10° 176° (S) 3,843 11.0 -8.8°
Maximum altitude 18:01:59 23° 129° (SE) 2,998 11.0 -7.1°
Drops below altitude 10° 18:09:15 10° 81° (E) 3,919 12.9 -5.4°
Sets 18:13:22 0° 68° (ENE) 4,919 14.5 -4.4°
